Time,TemperatureF,DewpointF,PressureIn,WindDirection,WindDirectionDegrees,WindSpeedMPH,WindSpeedGustMPH,Humidity,HourlyPrecipIn,Conditions,Clouds,dailyrainin,SoftwareType,DateUTC
2013-01-07 00:00:00,34.5,13.8,29.74,NNW,343,0.0,0.0,42,0.00,,CLR,0.00,VWS V13.01,2013-01-07 06:00:00,
2013-01-07 00:05:00,34.3,13.6,29.74,NNW,343,0.0,0.0,42,0.00,,CLR,0.00,VWS V13.01,2013-01-07 06:05:00,
2013-01-07 00:10:00,34.3,13.6,29.74,NNW,342,0.0,0.0,42,0.00,,CLR,0.00,VWS V13.01,2013-01-07 06:10:00,
2013-01-07 00:15:00,34.2,13.5,29.74,NNW,342,0.0,0.0,42,0.00,,CLR,0.00,VWS V13.01,2013-01-07 06:15:00,
2013-01-07 00:20:00,34.0,13.3,29.74,NNW,342,0.0,0.0,42,0.00,,CLR,0.00,VWS V13.01,2013-01-07 06:20:00,
2013-01-07 00:25:00,34.0,13.9,29.74,NNW,342,0.0,0.0,43,0.00,,CLR,0.00,VWS V13.01,2013-01-07 06:25:00,
2013-01-07 00:30:00,34.0,13.9,29.74,NNW,343,0.0,0.0,43,0.00,,CLR,0.00,VWS V13.01,2013-01-07 06:30:00,
2013-01-07 00:35:00,34.2,14.0,29.74,NNW,343,0.0,0.0,43,0.00,,CLR,0.00,VWS V13.01,2013-01-07 06:35:00,
2013-01-07 00:40:00,34.5,14.3,29.74,NNW,343,0.0,0.0,43,0.00,,CLR,0.00,VWS V13.01,2013-01-07 06:40:00,
2013-01-07 00:45:00,34.7,14.5,29.74,NNW,343,0.0,0.0,43,0.00,,CLR,0.00,VWS V13.01,2013-01-07 06:45:00,
2013-01-07 00:50:00,34.7,14.5,29.74,NNW,343,0.0,0.0,43,0.00,,CLR,0.00,VWS V13.01,2013-01-07 06:50:00,
2013-01-07 00:55:00,34.7,14.5,29.74,NNW,343,0.0,0.0,43,0.00,,CLR,0.00,VWS V13.01,2013-01-07 06:55:00,
2013-01-07 01:00:00,34.3,14.2,29.74,NNW,342,0.0,0.0,43,0.00,,CLR,0.00,VWS V13.01,2013-01-07 07:00:00,
2013-01-07 01:05:00,34.3,13.6,29.74,NNW,343,0.0,0.0,42,0.00,,CLR,0.00,VWS V13.01,2013-01-07 07:05:00,
2013-01-07 01:10:00,34.0,13.3,29.74,NNW,343,0.0,0.0,42,0.00,,CLR,0.00,VWS V13.01,2013-01-07 07:10:00,
2013-01-07 01:15:00,33.8,13.7,29.74,NNW,342,0.0,0.0,43,0.00,,CLR,0.00,VWS V13.01,2013-01-07 07:15:00,
2013-01-07 01:20:00,33.6,13.5,29.74,NNW,342,0.0,0.0,43,0.00,,CLR,0.00,VWS V13.01,2013-01-07 07:20:00,
2013-01-07 01:25:00,33.3,13.2,29.74,NNW,342,0.0,0.0,43,0.00,,CLR,0.00,VWS V13.01,2013-01-07 07:25:00,
2013-01-07 01:30:00,33.1,13.0,29.74,NNW,343,0.0,0.0,43,0.00,,CLR,0.00,VWS V13.01,2013-01-07 07:30:00,
2013-01-07 01:35:00,32.9,13.4,29.74,NNW,342,0.0,0.0,44,0.00,,CLR,0.00,VWS V13.01,2013-01-07 07:35:00,
2013-01-07 01:40:00,32.7,13.2,29.74,NNW,342,0.0,0.0,44,0.00,,CLR,0.00,VWS V13.01,2013-01-07 07:40:00,
2013-01-07 01:45:00,33.1,13.6,29.74,NNW,343,0.0,0.0,44,0.00,,CLR,0.00,VWS V13.01,2013-01-07 07:45:00,
2013-01-07 01:50:00,33.1,13.6,29.74,NNW,342,0.0,0.0,44,0.00,,CLR,0.00,VWS V13.01,2013-01-07 07:50:00,
2013-01-07 01:55:00,32.9,13.4,29.74,NNW,342,0.0,0.0,44,0.00,,CLR,0.00,VWS V13.01,2013-01-07 07:55:00,
2013-01-07 02:00:00,32.9,13.4,29.74,NNW,343,0.0,0.0,44,0.00,,CLR,0.00,VWS V13.01,2013-01-07 08:00:00,
2013-01-07 02:05:00,32.5,13.6,29.74,NNW,343,0.0,0.0,45,0.00,,CLR,0.00,VWS V13.01,2013-01-07 08:05:00,
2013-01-07 02:10:00,32.5,13.6,29.74,NNW,343,0.0,0.0,45,0.00,,CLR,0.00,VWS V13.01,2013-01-07 08:10:00,
2013-01-07 02:15:00,32.5,13.6,29.74,NNW,342,0.0,0.0,45,0.00,,CLR,0.00,VWS V13.01,2013-01-07 08:15:00,
2013-01-07 02:20:00,32.5,13.6,29.71,NNW,343,0.0,0.0,45,0.00,,CLR,0.00,VWS V13.01,2013-01-07 08:20:00,
2013-01-07 02:25:00,32.7,13.7,29.71,NNW,342,0.0,0.0,45,0.00,,CLR,0.00,VWS V13.01,2013-01-07 08:25:00,
2013-01-07 02:30:00,32.7,13.7,29.71,NNW,343,0.0,0.0,45,0.00,,CLR,0.00,VWS V13.01,2013-01-07 08:30:00,
2013-01-07 02:35:00,32.7,13.7,29.71,NNW,343,0.0,0.0,45,0.00,,CLR,0.00,VWS V13.01,2013-01-07 08:35:00,
2013-01-07 02:40:00,32.7,13.7,29.71,NNW,342,0.0,0.0,45,0.00,,CLR,0.00,VWS V13.01,2013-01-07 08:40:00,
2013-01-07 02:45:00,32.7,13.7,29.71,NNW,342,0.0,0.0,45,0.00,,CLR,0.00,VWS V13.01,2013-01-07 08:45:00,
2013-01-07 02:50:00,32.7,13.7,29.71,NNW,343,0.0,0.0,45,0.00,,CLR,0.00,VWS V13.01,2013-01-07 08:50:00,
2013-01-07 02:55:00,32.9,13.4,29.71,NNW,342,0.0,0.0,44,0.00,,CLR,0.00,VWS V13.01,2013-01-07 08:55:00,
2013-01-07 03:00:00,33.1,13.6,29.71,NNW,343,0.0,0.0,44,0.00,,CLR,0.00,VWS V13.01,2013-01-07 09:00:00,
2013-01-07 03:05:00,33.1,13.0,29.71,NNW,342,0.0,0.0,43,0.00,,CLR,0.00,VWS V13.01,2013-01-07 09:05:00,
2013-01-07 03:10:00,32.9,12.9,29.71,NNW,343,0.0,0.0,43,0.00,,CLR,0.00,VWS V13.01,2013-01-07 09:10:00,
2013-01-07 03:15:00,32.7,12.7,29.71,NNW,342,0.0,0.0,43,0.00,,CLR,0.00,VWS V13.01,2013-01-07 09:15:00,
2013-01-07 03:20:00,32.5,12.5,29.71,NNW,343,0.0,0.0,43,0.00,,CLR,0.00,VWS V13.01,2013-01-07 09:20:00,
2013-01-07 03:25:00,32.5,12.5,29.71,NNW,342,0.0,0.0,43,0.00,,CLR,0.00,VWS V13.01,2013-01-07 09:25:00,
2013-01-07 03:30:00,32.4,12.4,29.71,NNW,343,0.0,0.0,43,0.00,,CLR,0.00,VWS V13.01,2013-01-07 09:30:00,
2013-01-07 03:35:00,32.2,12.2,29.74,NNW,342,0.0,0.0,43,0.00,,CLR,0.00,VWS V13.01,2013-01-07 09:35:00,
2013-01-07 03:40:00,32.2,12.2,29.74,NNW,342,0.0,0.0,43,0.00,,CLR,0.00,VWS V13.01,2013-01-07 09:40:00,
2013-01-07 03:45:00,32.0,12.1,29.74,NNW,342,0.0,0.0,43,0.00,,CLR,0.00,VWS V13.01,2013-01-07 09:45:00,
2013-01-07 03:50:00,31.8,11.9,29.74,NNW,342,0.0,0.0,43,0.00,,CLR,0.00,VWS V13.01,2013-01-07 09:50:00,
2013-01-07 03:55:00,31.6,11.7,29.74,NNW,342,0.0,0.0,43,0.00,,CLR,0.00,VWS V13.01,2013-01-07 09:55:00,
2013-01-07 04:00:00,31.5,11.6,29.71,NNW,343,0.0,0.0,43,0.00,,CLR,0.00,VWS V13.01,2013-01-07 10:00:00,
2013-01-07 04:05:00,31.5,12.6,29.71,NNW,343,0.0,0.0,45,0.00,,CLR,0.00,VWS V13.01,2013-01-07 10:05:00,
2013-01-07 04:10:00,31.5,12.6,29.71,NNW,343,0.0,0.0,45,0.00,,CLR,0.00,VWS V13.01,2013-01-07 10:10:00,
2013-01-07 04:15:00,31.3,11.9,29.71,NNW,342,0.0,0.0,44,0.00,,CLR,0.00,VWS V13.01,2013-01-07 10:15:00,
2013-01-07 04:20:00,31.1,11.8,29.74,NNW,342,0.0,0.0,44,0.00,,CLR,0.00,VWS V13.01,2013-01-07 10:20:00,
2013-01-07 04:25:00,31.1,11.8,29.71,NNW,343,0.0,0.0,44,0.00,,CLR,0.00,VWS V13.01,2013-01-07 10:25:00,
2013-01-07 04:30:00,31.1,12.2,29.71,NNW,343,0.0,0.0,45,0.00,,CLR,0.00,VWS V13.01,2013-01-07 10:30:00,
2013-01-07 04:35:00,30.9,12.1,29.71,NNW,342,0.0,0.0,45,0.00,,CLR,0.00,VWS V13.01,2013-01-07 10:35:00,
2013-01-07 04:40:00,30.7,11.9,29.71,NNW,343,0.0,0.0,45,0.00,,CLR,0.00,VWS V13.01,2013-01-07 10:40:00,
2013-01-07 04:45:00,30.7,11.9,29.71,NNW,342,0.0,0.0,45,0.00,,CLR,0.00,VWS V13.01,2013-01-07 10:45:00,
2013-01-07 04:50:00,30.7,11.9,29.71,NNW,343,0.0,0.0,45,0.00,,CLR,0.00,VWS V13.01,2013-01-07 10:50:00,
2013-01-07 04:55:00,30.6,11.8,29.71,NNW,342,0.0,0.0,45,0.00,,CLR,0.00,VWS V13.01,2013-01-07 10:55:00,
2013-01-07 05:00:00,30.4,11.6,29.71,NNW,342,0.0,0.0,45,0.00,,CLR,0.00,VWS V13.01,2013-01-07 11:00:00,
2013-01-07 05:05:00,30.2,11.9,29.71,NNW,343,0.0,0.0,46,0.00,,CLR,0.00,VWS V13.01,2013-01-07 11:05:00,
2013-01-07 05:10:00,30.2,11.9,29.71,NNW,343,0.0,0.0,46,0.00,,CLR,0.00,VWS V13.01,2013-01-07 11:10:00,
2013-01-07 05:15:00,30.0,11.8,29.71,NNW,343,0.0,0.0,46,0.00,,CLR,0.00,VWS V13.01,2013-01-07 11:15:00,
2013-01-07 05:20:00,29.8,12.1,29.71,NNW,342,0.0,0.0,47,0.00,,CLR,0.00,VWS V13.01,2013-01-07 11:20:00,
2013-01-07 05:25:00,29.8,12.1,29.71,NNW,343,0.0,0.0,47,0.00,,CLR,0.00,VWS V13.01,2013-01-07 11:25:00,
2013-01-07 05:30:00,29.8,12.1,29.71,NNW,342,0.0,0.0,47,0.00,,CLR,0.00,VWS V13.01,2013-01-07 11:30:00,
2013-01-07 05:35:00,29.7,11.9,29.71,NNW,342,0.0,0.0,47,0.00,,CLR,0.00,VWS V13.01,2013-01-07 11:35:00,
2013-01-07 05:40:00,29.7,11.9,29.71,NNW,343,0.0,0.0,47,0.00,,CLR,0.00,VWS V13.01,2013-01-07 11:40:00,
2013-01-07 05:45:00,29.5,12.2,29.71,NNW,343,0.0,0.0,48,0.00,,CLR,0.00,VWS V13.01,2013-01-07 11:45:00,
2013-01-07 05:50:00,29.5,12.2,29.71,NNW,342,0.0,0.0,48,0.00,,CLR,0.00,VWS V13.01,2013-01-07 11:50:00,
2013-01-07 05:55:00,29.5,12.2,29.71,NNW,343,0.0,0.0,48,0.00,,CLR,0.00,VWS V13.01,2013-01-07 11:55:00,
2013-01-07 06:00:00,29.5,12.2,29.71,NNW,342,0.0,0.0,48,0.00,,CLR,0.00,VWS V13.01,2013-01-07 12:00:00,
2013-01-07 06:05:00,29.3,12.1,29.71,NNW,343,0.0,0.0,48,0.00,,CLR,0.00,VWS V13.01,2013-01-07 12:05:00,
2013-01-07 06:10:00,29.1,12.4,29.71,NNW,343,0.0,0.0,49,0.00,,CLR,0.00,VWS V13.01,2013-01-07 12:10:00,
2013-01-07 06:15:00,29.1,12.4,29.71,NNW,342,0.0,0.0,49,0.00,,CLR,0.00,VWS V13.01,2013-01-07 12:15:00,
2013-01-07 06:20:00,28.9,12.2,29.71,NNW,343,0.0,0.0,49,0.00,,CLR,0.00,VWS V13.01,2013-01-07 12:20:00,
2013-01-07 06:25:00,28.9,12.2,29.71,NNW,343,0.0,0.0,49,0.00,,CLR,0.00,VWS V13.01,2013-01-07 12:25:00,
2013-01-07 06:30:00,28.9,12.2,29.71,NNW,342,0.0,0.0,49,0.00,,CLR,0.00,VWS V13.01,2013-01-07 12:30:00,
2013-01-07 06:35:00,28.8,12.0,29.71,NNW,343,0.0,0.0,49,0.00,,CLR,0.00,VWS V13.01,2013-01-07 12:35:00,
2013-01-07 06:40:00,28.8,12.0,29.71,NNW,342,0.0,0.0,49,0.00,,CLR,0.00,VWS V13.01,2013-01-07 12:40:00,
2013-01-07 06:45:00,28.8,12.5,29.71,NNW,342,0.0,0.0,50,0.00,,CLR,0.00,VWS V13.01,2013-01-07 12:45:00,
2013-01-07 06:50:00,28.6,12.3,29.71,NNW,343,0.0,0.0,50,0.00,,CLR,0.00,VWS V13.01,2013-01-07 12:50:00,
2013-01-07 06:55:00,28.6,12.3,29.71,NNW,342,0.0,0.0,50,0.00,,CLR,0.00,VWS V13.01,2013-01-07 12:55:00,
2013-01-07 07:00:00,28.8,12.5,29.71,NNW,342,0.0,0.0,50,0.00,,CLR,0.00,VWS V13.01,2013-01-07 13:00:00,
2013-01-07 07:05:00,28.6,12.3,29.74,NNW,342,0.0,0.0,50,0.00,,CLR,0.00,VWS V13.01,2013-01-07 13:05:00,
2013-01-07 07:10:00,28.6,12.3,29.74,NNW,343,0.0,0.0,50,0.00,,CLR,0.00,VWS V13.01,2013-01-07 13:10:00,
2013-01-07 07:15:00,28.4,12.6,29.74,NNW,342,0.0,0.0,51,0.00,,CLR,0.00,VWS V13.01,2013-01-07 13:15:00,
2013-01-07 07:20:00,28.2,12.4,29.74,NNW,342,0.0,0.0,51,0.00,,CLR,0.00,VWS V13.01,2013-01-07 13:20:00,
2013-01-07 07:25:00,28.2,12.4,29.74,NNW,342,0.0,0.0,51,0.00,,CLR,0.00,VWS V13.01,2013-01-07 13:25:00,
2013-01-07 07:30:00,28.2,12.4,29.74,NNW,342,0.0,0.0,51,0.00,,CLR,0.00,VWS V13.01,2013-01-07 13:30:00,
2013-01-07 07:35:00,28.2,12.4,29.74,NNW,342,0.0,0.0,51,0.00,,CLR,0.00,VWS V13.01,2013-01-07 13:35:00,
2013-01-07 07:40:00,28.2,12.4,29.74,NNW,342,0.0,0.0,51,0.00,,CLR,0.00,VWS V13.01,2013-01-07 13:40:00,
2013-01-07 07:45:00,28.4,12.6,29.74,NNW,343,0.0,0.0,51,0.00,,SCT250,0.00,VWS V13.01,2013-01-07 13:45:00,
2013-01-07 07:50:00,28.4,13.0,29.74,NNW,343,0.0,0.0,52,0.00,,SCT250,0.00,VWS V13.01,2013-01-07 13:50:00,
2013-01-07 07:55:00,28.6,12.8,29.74,NNW,342,0.0,0.0,51,0.00,,SCT250,0.00,VWS V13.01,2013-01-07 13:55:00,
2013-01-07 08:00:00,28.8,12.9,29.74,NNW,343,0.0,0.0,51,0.00,,SCT250,0.00,VWS V13.01,2013-01-07 14:00:00,
2013-01-07 08:05:00,29.3,13.9,29.74,NNW,343,0.0,0.0,52,0.00,,SCT250,0.00,VWS V13.01,2013-01-07 14:05:00,
2013-01-07 08:10:00,29.7,14.2,29.74,NNW,342,0.0,0.0,52,0.00,,SCT250,0.00,VWS V13.01,2013-01-07 14:10:00,
2013-01-07 08:15:00,30.2,14.7,29.74,NNW,343,0.0,0.0,52,0.00,,SCT250,0.00,VWS V13.01,2013-01-07 14:15:00,
2013-01-07 08:20:00,30.7,15.2,29.74,NNW,342,0.0,0.0,52,0.00,,SCT250,0.00,VWS V13.01,2013-01-07 14:20:00,
2013-01-07 08:25:00,31.3,15.7,29.74,NNW,343,0.0,0.0,52,0.00,,SCT250,0.00,VWS V13.01,2013-01-07 14:25:00,
2013-01-07 08:30:00,32.0,16.4,29.74,NNW,343,0.0,0.0,52,0.00,,SCT250,0.00,VWS V13.01,2013-01-07 14:30:00,
2013-01-07 08:35:00,32.5,16.9,29.74,NNW,342,0.0,0.0,52,0.00,,SCT250,0.00,VWS V13.01,2013-01-07 14:35:00,
2013-01-07 08:40:00,33.3,17.5,29.74,North,1,0.0,0.0,52,0.00,,SCT250,0.00,VWS V13.01,2013-01-07 14:40:00,
2013-01-07 08:45:00,34.2,17.9,29.74,North,1,0.0,0.0,51,0.00,,BKN300,0.00,VWS V13.01,2013-01-07 14:45:00,
2013-01-07 08:50:00,34.3,17.6,29.74,North,3,0.0,0.0,50,0.00,,BKN300,0.00,VWS V13.01,2013-01-07 14:50:00,
2013-01-07 08:55:00,35.8,16.5,29.74,North,353,0.0,0.0,45,0.00,,BKN300,0.00,VWS V13.01,2013-01-07 14:55:00,
2013-01-07 09:00:00,36.1,16.4,29.74,North,1,0.0,0.0,44,0.00,,BKN300,0.00,VWS V13.01,2013-01-07 15:00:00,
2013-01-07 09:05:00,37.6,16.6,29.74,North,357,0.0,0.0,42,0.00,,BKN300,0.00,VWS V13.01,2013-01-07 15:05:00,
2013-01-07 09:10:00,38.3,16.7,29.74,North,0,0.0,0.0,41,0.00,,BKN300,0.00,VWS V13.01,2013-01-07 15:10:00,
2013-01-07 09:15:00,38.3,16.7,29.74,NNE,15,0.0,0.0,41,0.00,,BKN300,0.00,VWS V13.01,2013-01-07 15:15:00,
2013-01-07 09:20:00,39.2,16.3,29.74,NNE,15,0.0,0.0,39,0.00,,BKN300,0.00,VWS V13.01,2013-01-07 15:20:00,
2013-01-07 09:25:00,40.3,17.3,29.74,NNE,15,0.0,0.0,39,0.00,,BKN300,0.00,VWS V13.01,2013-01-07 15:25:00,
2013-01-07 09:30:00,40.6,17.6,29.74,East,87,2.7,2.7,39,0.00,,BKN300,0.00,VWS V13.01,2013-01-07 15:30:00,
2013-01-07 09:35:00,40.6,17.6,29.74,NNE,32,3.1,3.1,39,0.00,,BKN300,0.00,VWS V13.01,2013-01-07 15:35:00,
2013-01-07 09:40:00,41.0,16.1,29.74,NNE,19,3.1,3.1,36,0.00,,BKN300,0.00,VWS V13.01,2013-01-07 15:40:00,
2013-01-07 09:45:00,41.2,16.3,29.74,NE,38,3.6,3.6,36,0.00,,BKN300,0.00,VWS V13.01,2013-01-07 15:45:00,
2013-01-07 09:50:00,41.2,16.3,29.74,East,92,3.1,3.1,36,0.00,,BKN300,0.00,VWS V13.01,2013-01-07 15:50:00,
2013-01-07 09:55:00,41.5,16.6,29.74,ENE,64,0.0,0.0,36,0.00,,BKN300,0.00,VWS V13.01,2013-01-07 15:55:00,
2013-01-07 10:00:00,41.7,16.8,29.74,NE,36,2.2,2.2,36,0.00,,BKN300,0.00,VWS V13.01,2013-01-07 16:00:00,
2013-01-07 10:05:00,42.1,17.1,29.74,East,89,0.0,0.0,36,0.00,,BKN300,0.00,VWS V13.01,2013-01-07 16:05:00,
2013-01-07 10:10:00,42.3,17.2,29.74,ESE,102,0.0,0.0,36,0.00,,BKN300,0.00,VWS V13.01,2013-01-07 16:10:00,
2013-01-07 10:15:00,43.0,17.9,29.74,ENE,71,0.0,0.0,36,0.00,,BKN300,0.00,VWS V13.01,2013-01-07 16:15:00,
2013-01-07 10:20:00,43.0,17.9,29.74,East,93,2.7,2.7,36,0.00,,BKN300,0.00,VWS V13.01,2013-01-07 16:20:00,
2013-01-07 10:25:00,44.6,18.0,29.74,ESE,102,0.0,0.0,34,0.00,,BKN300,0.00,VWS V13.01,2013-01-07 16:25:00,
2013-01-07 10:30:00,44.6,18.0,29.74,ESE,102,0.0,0.0,34,0.00,,BKN300,0.00,VWS V13.01,2013-01-07 16:30:00,
2013-01-07 10:35:00,46.0,17.9,29.74,East,91,3.1,3.1,32,0.00,,BKN300,0.00,VWS V13.01,2013-01-07 16:35:00,
2013-01-07 10:40:00,46.4,18.2,29.74,East,97,5.4,5.4,32,0.00,,BKN300,0.00,VWS V13.01,2013-01-07 16:40:00,
2013-01-07 10:45:00,46.6,17.6,29.74,SE,141,4.0,6.3,31,0.00,,BKN300,0.00,VWS V13.01,2013-01-07 16:45:00,
2013-01-07 10:50:00,46.8,17.7,29.74,SE,144,6.3,6.3,31,0.00,,BKN300,0.00,VWS V13.01,2013-01-07 16:50:00,
2013-01-07 10:55:00,47.1,18.1,29.74,East,100,5.8,5.8,31,0.00,,BKN300,0.00,VWS V13.01,2013-01-07 16:55:00,
2013-01-07 11:00:00,47.1,18.1,29.74,ESE,120,0.0,2.7,31,0.00,,BKN300,0.00,VWS V13.01,2013-01-07 17:00:00,
2013-01-07 11:04:00,48.0,18.8,29.74,SE,129,3.6,3.6,31,0.00,,BKN300,0.00,VWS V13.01,2013-01-07 17:04:00,
2013-01-07 11:09:00,48.4,19.2,29.74,SE,127,0.0,0.0,31,0.00,,BKN300,0.00,VWS V13.01,2013-01-07 17:09:00,
2013-01-07 11:14:00,49.1,19.0,29.74,ESE,117,5.8,5.8,30,0.00,,BKN300,0.00,VWS V13.01,2013-01-07 17:14:00,
2013-01-07 11:19:00,49.5,19.3,29.74,SE,127,2.7,2.7,30,0.00,,BKN300,0.00,VWS V13.01,2013-01-07 17:19:00,
2013-01-07 11:24:00,49.6,19.5,29.71,ESE,113,3.1,3.1,30,0.00,,BKN300,0.00,VWS V13.01,2013-01-07 17:24:00,
2013-01-07 11:29:00,50.5,19.5,29.71,SE,142,3.1,3.1,29,0.00,,BKN300,0.00,VWS V13.01,2013-01-07 17:29:00,
2013-01-07 11:34:00,51.1,20.0,29.71,SSE,162,2.2,2.2,29,0.00,,BKN300,0.00,VWS V13.01,2013-01-07 17:34:00,
2013-01-07 11:39:00,51.6,19.6,29.71,SSE,149,0.0,0.0,28,0.00,,BKN300,0.00,VWS V13.01,2013-01-07 17:39:00,
2013-01-07 11:44:00,51.6,19.6,29.71,ESE,119,4.9,4.9,28,0.00,,BKN300,0.00,VWS V13.01,2013-01-07 17:44:00,
2013-01-07 11:49:00,52.2,19.2,29.71,ESE,114,4.0,4.0,27,0.00,,BKN300,0.00,VWS V13.01,2013-01-07 17:49:00,
2013-01-07 11:54:00,52.5,19.5,29.71,ESE,114,4.0,4.0,27,0.00,,BKN300,0.00,VWS V13.01,2013-01-07 17:54:00,
2013-01-07 11:59:00,52.5,19.5,29.71,SSE,147,5.4,5.4,27,0.00,,BKN300,0.00,VWS V13.01,2013-01-07 17:59:00,
2013-01-07 12:04:00,52.3,19.4,29.71,ESE,118,2.7,2.7,27,0.00,,BKN300,0.00,VWS V13.01,2013-01-07 18:04:00,
2013-01-07 12:09:00,52.5,19.5,29.71,SE,132,3.1,3.1,27,0.00,,BKN300,0.00,VWS V13.01,2013-01-07 18:09:00,
2013-01-07 12:14:00,52.3,19.4,29.71,SE,140,3.1,3.1,27,0.00,,BKN300,0.00,VWS V13.01,2013-01-07 18:14:00,
2013-01-07 12:19:00,52.5,19.5,29.71,ENE,66,5.4,5.4,27,0.00,,BKN300,0.00,VWS V13.01,2013-01-07 18:19:00,
2013-01-07 12:24:00,52.7,19.7,29.71,South,169,3.1,3.6,27,0.00,,BKN300,0.00,VWS V13.01,2013-01-07 18:24:00,
2013-01-07 12:29:00,53.1,19.1,29.71,East,85,6.3,6.3,26,0.00,,BKN300,0.00,VWS V13.01,2013-01-07 18:29:00,
2013-01-07 12:34:00,53.4,19.4,29.68,ESE,118,2.2,2.2,26,0.00,,BKN300,0.00,VWS V13.01,2013-01-07 18:34:00,
2013-01-07 12:39:00,54.0,19.9,29.68,NE,51,0.0,0.0,26,0.00,,BKN300,0.00,VWS V13.01,2013-01-07 18:39:00,
2013-01-07 12:44:00,54.0,19.9,29.68,NE,43,0.0,0.0,26,0.00,,BKN300,0.00,VWS V13.01,2013-01-07 18:44:00,
2013-01-07 12:49:00,54.5,20.3,29.68,East,101,5.8,5.8,26,0.00,,BKN300,0.00,VWS V13.01,2013-01-07 18:49:00,
2013-01-07 12:54:00,54.7,19.6,29.65,East,91,4.0,5.8,25,0.00,,BKN300,0.00,VWS V13.01,2013-01-07 18:54:00,
2013-01-07 12:59:00,54.1,17.2,29.65,SSE,157,5.8,5.8,23,0.00,,BKN300,0.00,VWS V13.01,2013-01-07 18:59:00,
2013-01-07 13:04:00,54.1,17.2,29.65,SSE,147,0.0,4.0,23,0.00,,BKN300,0.00,VWS V13.01,2013-01-07 19:04:00,
2013-01-07 13:09:00,54.7,17.6,29.65,SE,130,3.1,3.1,23,0.00,,BKN300,0.00,VWS V13.01,2013-01-07 19:09:00,
2013-01-07 13:14:00,55.2,18.1,29.65,East,82,4.9,4.9,23,0.00,,BKN300,0.00,VWS V13.01,2013-01-07 19:14:00,
2013-01-07 13:19:00,55.0,17.9,29.65,East,82,4.9,4.9,23,0.00,,BKN300,0.00,VWS V13.01,2013-01-07 19:19:00,
2013-01-07 13:24:00,55.4,15.0,29.65,East,82,4.9,4.9,20,0.00,,BKN300,0.00,VWS V13.01,2013-01-07 19:24:00,
2013-01-07 13:29:00,55.2,14.9,29.65,ESE,115,5.8,5.8,20,0.00,,BKN300,0.00,VWS V13.01,2013-01-07 19:29:00,
2013-01-07 13:34:00,55.2,14.9,29.65,ENE,63,0.0,0.0,20,0.00,,BKN300,0.00,VWS V13.01,2013-01-07 19:34:00,
2013-01-07 13:39:00,56.1,17.8,29.65,ESE,106,5.4,5.4,22,0.00,,BKN300,0.00,VWS V13.01,2013-01-07 19:39:00,
2013-01-07 13:44:00,55.9,15.5,29.65,East,98,5.4,5.4,20,0.00,,BKN300,0.00,VWS V13.01,2013-01-07 19:44:00,
2013-01-07 13:49:00,55.8,15.3,29.65,SE,136,3.6,3.6,20,0.00,,BKN300,0.00,VWS V13.01,2013-01-07 19:49:00,
2013-01-07 13:54:00,55.4,15.0,29.62,East,83,4.0,4.0,20,0.00,,BKN300,0.00,VWS V13.01,2013-01-07 19:54:00,
2013-01-07 13:59:00,55.2,14.9,29.62,North,0,4.0,4.0,20,0.00,,BKN300,0.00,VWS V13.01,2013-01-07 19:59:00,
2013-01-07 14:04:00,55.2,14.9,29.62,ESE,120,6.3,6.3,20,0.00,,BKN300,0.00,VWS V13.01,2013-01-07 20:04:00,
2013-01-07 14:09:00,55.0,14.7,29.62,SE,133,3.6,3.6,20,0.00,,BKN300,0.00,VWS V13.01,2013-01-07 20:09:00,
2013-01-07 14:14:00,55.2,14.9,29.62,SSE,158,5.8,5.8,20,0.00,,BKN300,0.00,VWS V13.01,2013-01-07 20:14:00,
2013-01-07 14:19:00,55.2,14.9,29.62,SE,144,0.0,4.0,20,0.00,,BKN300,0.00,VWS V13.01,2013-01-07 20:19:00,
2013-01-07 14:24:00,55.2,14.9,29.62,SE,145,0.0,0.0,20,0.00,,BKN300,0.00,VWS V13.01,2013-01-07 20:24:00,
2013-01-07 14:29:00,55.4,15.0,29.62,SE,128,2.7,3.1,20,0.00,,BKN300,0.00,VWS V13.01,2013-01-07 20:29:00,
2013-01-07 14:34:00,55.4,15.0,29.62,East,92,5.4,5.4,20,0.00,,BKN300,0.00,VWS V13.01,2013-01-07 20:34:00,
2013-01-07 14:39:00,55.2,14.9,29.59,ENE,73,2.7,6.3,20,0.00,,BKN300,0.00,VWS V13.01,2013-01-07 20:39:00,
2013-01-07 14:44:00,55.4,15.0,29.59,ESE,116,0.0,4.5,20,0.00,,BKN300,0.00,VWS V13.01,2013-01-07 20:44:00,
2013-01-07 14:49:00,55.4,15.0,29.59,SE,126,6.3,6.3,20,0.00,,BKN300,0.00,VWS V13.01,2013-01-07 20:49:00,
2013-01-07 14:54:00,55.8,15.3,29.59,East,90,5.4,5.4,20,0.00,,OVC250,0.00,VWS V13.01,2013-01-07 20:54:00,
2013-01-07 14:59:00,55.6,15.2,29.59,ENE,76,0.0,0.0,20,0.00,,OVC250,0.00,VWS V13.01,2013-01-07 20:59:00,
2013-01-07 15:04:00,55.4,15.0,29.59,ESE,109,2.7,2.7,20,0.00,,OVC250,0.00,VWS V13.01,2013-01-07 21:04:00,
2013-01-07 15:09:00,55.4,15.0,29.59,ESE,122,5.8,5.8,20,0.00,,OVC250,0.00,VWS V13.01,2013-01-07 21:09:00,
2013-01-07 15:14:00,55.2,14.9,29.59,SE,142,5.4,5.4,20,0.00,,OVC250,0.00,VWS V13.01,2013-01-07 21:14:00,
2013-01-07 15:19:00,55.8,15.3,29.59,East,97,0.0,0.0,20,0.00,,OVC250,0.00,VWS V13.01,2013-01-07 21:19:00,
2013-01-07 15:24:00,56.3,15.8,29.56,ESE,108,0.0,0.0,20,0.00,,OVC250,0.00,VWS V13.01,2013-01-07 21:24:00,
2013-01-07 15:29:00,56.5,12.2,29.56,SSE,149,4.0,4.0,17,0.00,,OVC250,0.00,VWS V13.01,2013-01-07 21:29:00,
2013-01-07 15:34:00,56.5,12.2,29.56,ESE,103,5.4,5.4,17,0.00,,OVC250,0.00,VWS V13.01,2013-01-07 21:34:00,
2013-01-07 15:38:00,56.5,12.2,29.56,SE,135,3.1,4.0,17,0.00,,OVC250,0.00,VWS V13.01,2013-01-07 21:38:00,
2013-01-07 15:43:00,56.5,12.2,29.56,ESE,105,7.6,7.6,17,0.00,,OVC250,0.00,VWS V13.01,2013-01-07 21:43:00,
2013-01-07 15:48:00,56.3,12.1,29.56,East,101,3.6,6.3,17,0.00,,OVC250,0.00,VWS V13.01,2013-01-07 21:48:00,
2013-01-07 15:53:00,55.8,11.6,29.56,ESE,113,5.4,5.4,17,0.00,,OVC250,0.00,VWS V13.01,2013-01-07 21:53:00,
2013-01-07 15:58:00,55.8,11.6,29.56,East,88,2.2,4.0,17,0.00,,OVC250,0.00,VWS V13.01,2013-01-07 21:58:00,
2013-01-07 16:03:00,54.7,12.0,29.56,SSE,153,0.0,0.0,18,0.00,,OVC250,0.00,VWS V13.01,2013-01-07 22:03:00,
2013-01-07 16:08:00,54.5,11.9,29.59,ESE,105,4.0,4.0,18,0.00,,OVC250,0.00,VWS V13.01,2013-01-07 22:08:00,
2013-01-07 16:13:00,54.5,11.9,29.59,East,91,0.0,0.0,18,0.00,,OVC250,0.00,VWS V13.01,2013-01-07 22:13:00,
2013-01-07 16:18:00,54.3,11.7,29.59,East,96,2.7,2.7,18,0.00,,OVC250,0.00,VWS V13.01,2013-01-07 22:18:00,
2013-01-07 16:23:00,54.3,11.7,29.59,East,86,2.2,3.1,18,0.00,,OVC250,0.00,VWS V13.01,2013-01-07 22:23:00,
2013-01-07 16:28:00,54.3,11.7,29.59,ESE,112,0.0,0.0,18,0.00,,OVC250,0.00,VWS V13.01,2013-01-07 22:28:00,
2013-01-07 16:33:00,54.3,11.7,29.59,SE,137,3.1,3.1,18,0.00,,OVC250,0.00,VWS V13.01,2013-01-07 22:33:00,
2013-01-07 16:38:00,54.3,11.7,29.56,SE,129,4.0,4.0,18,0.00,,OVC250,0.00,VWS V13.01,2013-01-07 22:38:00,
2013-01-07 16:43:00,54.3,11.7,29.56,East,100,0.0,0.0,18,0.00,,OVC250,0.00,VWS V13.01,2013-01-07 22:43:00,
2013-01-07 16:48:00,54.0,11.4,29.56,East,90,160.8,160.8,18,0.00,,OVC250,0.00,VWS V13.01,2013-01-07 22:48:00,
2013-01-07 16:53:00,53.8,11.3,29.59,ESE,117,0.0,0.0,18,0.00,,OVC250,0.00,VWS V13.01,2013-01-07 22:53:00,
2013-01-07 16:58:00,53.6,11.1,29.59,SE,137,0.0,0.0,18,0.00,,OVC250,0.00,VWS V13.01,2013-01-07 22:58:00,
2013-01-07 17:03:00,53.6,11.1,29.59,ESE,118,2.2,4.0,18,0.00,,OVC250,0.00,VWS V13.01,2013-01-07 23:03:00,
2013-01-07 17:08:00,53.2,14.3,29.59,SE,145,0.0,0.0,21,0.00,,OVC250,0.00,VWS V13.01,2013-01-07 23:08:00,
2013-01-07 17:13:00,53.1,14.2,29.56,SE,126,0.0,0.0,21,0.00,,OVC250,0.00,VWS V13.01,2013-01-07 23:13:00,
2013-01-07 17:18:00,52.9,14.0,29.56,SE,126,0.0,0.0,21,0.00,,OVC250,0.00,VWS V13.01,2013-01-07 23:18:00,
2013-01-07 17:23:00,52.7,13.9,29.56,ESE,106,0.0,0.0,21,0.00,,OVC250,0.00,VWS V13.01,2013-01-07 23:23:00,
2013-01-07 17:28:00,52.5,13.7,29.56,SE,132,0.0,0.0,21,0.00,,OVC250,0.00,VWS V13.01,2013-01-07 23:28:00,
2013-01-07 17:33:00,52.3,13.6,29.56,ENE,72,0.0,0.0,21,0.00,,OVC250,0.00,VWS V13.01,2013-01-07 23:33:00,
2013-01-07 17:38:00,52.2,13.4,29.56,East,101,0.0,0.0,21,0.00,,OVC250,0.00,VWS V13.01,2013-01-07 23:38:00,
2013-01-07 17:43:00,52.0,13.3,29.56,SE,127,0.0,0.0,21,0.00,,OVC240,0.00,VWS V13.01,2013-01-07 23:43:00,
2013-01-07 17:48:00,51.6,13.0,29.56,ESE,112,0.0,0.0,21,0.00,,OVC240,0.00,VWS V13.01,2013-01-07 23:48:00,
2013-01-07 17:53:00,51.3,12.7,29.56,ESE,111,0.0,0.0,21,0.00,,OVC240,0.00,VWS V13.01,2013-01-07 23:53:00,
2013-01-07 17:58:00,50.9,12.4,29.56,ESE,111,0.0,0.0,21,0.00,,OVC240,0.00,VWS V13.01,2013-01-07 23:58:00,
2013-01-07 18:03:00,50.7,12.2,29.56,SE,132,0.0,0.0,21,0.00,,OVC240,0.00,VWS V13.01,2013-01-08 00:03:00,
2013-01-07 18:08:00,50.5,15.1,29.56,East,98,0.0,0.0,24,0.00,,OVC240,0.00,VWS V13.01,2013-01-08 00:08:00,
2013-01-07 18:13:00,50.4,14.9,29.56,SE,134,0.0,0.0,24,0.00,,OVC230,0.00,VWS V13.01,2013-01-08 00:13:00,
2013-01-07 18:18:00,50.2,14.8,29.56,SE,135,0.0,0.0,24,0.00,,OVC230,0.00,VWS V13.01,2013-01-08 00:18:00,
2013-01-07 18:23:00,49.8,14.5,29.56,SE,134,0.0,0.0,24,0.00,,OVC230,0.00,VWS V13.01,2013-01-08 00:23:00,
2013-01-07 18:28:00,49.8,14.5,29.56,SE,135,0.0,0.0,24,0.00,,OVC230,0.00,VWS V13.01,2013-01-08 00:28:00,
2013-01-07 18:33:00,49.1,15.7,29.56,SE,133,0.0,0.0,26,0.00,,OVC230,0.00,VWS V13.01,2013-01-08 00:33:00,
2013-01-07 18:38:00,48.9,15.6,29.56,SE,135,0.0,0.0,26,0.00,,OVC230,0.00,VWS V13.01,2013-01-08 00:38:00,
2013-01-07 18:43:00,48.7,15.4,29.56,SE,135,0.0,0.0,26,0.00,,OVC230,0.00,VWS V13.01,2013-01-08 00:43:00,
2013-01-07 18:48:00,48.4,16.0,29.56,SE,135,0.0,0.0,27,0.00,,OVC230,0.00,VWS V13.01,2013-01-08 00:48:00,
2013-01-07 18:53:00,48.4,16.0,29.56,SE,134,0.0,0.0,27,0.00,,OVC230,0.00,VWS V13.01,2013-01-08 00:53:00,
2013-01-07 18:58:00,47.8,15.5,29.56,SE,135,0.0,0.0,27,0.00,,OVC230,0.00,VWS V13.01,2013-01-08 00:58:00,
2013-01-07 19:03:00,47.7,16.2,29.56,SE,133,0.0,0.0,28,0.00,,OVC230,0.00,VWS V13.01,2013-01-08 01:03:00,
2013-01-07 19:08:00,47.5,16.0,29.56,SE,135,0.0,0.0,28,0.00,,OVC230,0.00,VWS V13.01,2013-01-08 01:08:00,
2013-01-07 19:13:00,47.3,15.9,29.56,SE,134,0.0,0.0,28,0.00,,OVC230,0.00,VWS V13.01,2013-01-08 01:13:00,
2013-01-07 19:18:00,47.1,15.7,29.56,SE,135,0.0,0.0,28,0.00,,OVC230,0.00,VWS V13.01,2013-01-08 01:18:00,
2013-01-07 19:23:00,46.8,16.2,29.56,SE,133,0.0,0.0,29,0.00,,OVC230,0.00,VWS V13.01,2013-01-08 01:23:00,
2013-01-07 19:28:00,46.8,16.2,29.56,SE,135,0.0,0.0,29,0.00,,OVC230,0.00,VWS V13.01,2013-01-08 01:28:00,
2013-01-07 19:33:00,46.6,16.0,29.56,SE,134,0.0,0.0,29,0.00,,OVC230,0.00,VWS V13.01,2013-01-08 01:33:00,
2013-01-07 19:38:00,46.6,16.0,29.56,SE,133,0.0,0.0,29,0.00,,OVC230,0.00,VWS V13.01,2013-01-08 01:38:00,
2013-01-07 19:43:00,46.4,15.9,29.56,SE,133,0.0,0.0,29,0.00,,OVC220,0.00,VWS V13.01,2013-01-08 01:43:00,
2013-01-07 19:48:00,46.4,15.9,29.56,SE,134,0.0,0.0,29,0.00,,OVC220,0.00,VWS V13.01,2013-01-08 01:48:00,
2013-01-07 19:53:00,46.2,16.5,29.56,SE,134,0.0,0.0,30,0.00,,OVC220,0.00,VWS V13.01,2013-01-08 01:53:00,
2013-01-07 19:58:00,46.0,16.4,29.56,SE,134,0.0,0.0,30,0.00,,OVC220,0.00,VWS V13.01,2013-01-08 01:58:00,
2013-01-07 20:03:00,46.0,17.1,29.56,SE,133,0.0,0.0,31,0.00,,OVC220,0.00,VWS V13.01,2013-01-08 02:03:00,
2013-01-07 20:08:00,46.2,17.3,29.56,SE,133,0.0,0.0,31,0.00,,OVC220,0.00,VWS V13.01,2013-01-08 02:08:00,
2013-01-07 20:13:00,46.2,18.0,29.56,SE,134,0.0,0.0,32,0.00,,OVC220,0.00,VWS V13.01,2013-01-08 02:13:00,
2013-01-07 20:18:00,46.4,17.4,29.56,SE,134,0.0,0.0,31,0.00,,OVC220,0.00,VWS V13.01,2013-01-08 02:18:00,
2013-01-07 20:23:00,46.8,18.5,29.56,SE,125,0.0,0.0,32,0.00,,OVC220,0.00,VWS V13.01,2013-01-08 02:23:00,
2013-01-07 20:28:00,46.9,17.9,29.56,SE,125,0.0,0.0,31,0.00,,OVC220,0.00,VWS V13.01,2013-01-08 02:28:00,
2013-01-07 20:33:00,46.9,17.9,29.56,ESE,112,0.0,0.0,31,0.00,,OVC220,0.00,VWS V13.01,2013-01-08 02:33:00,
2013-01-07 20:38:00,46.9,17.9,29.56,ESE,113,0.0,0.0,31,0.00,,OVC220,0.00,VWS V13.01,2013-01-08 02:38:00,
2013-01-07 20:43:00,46.9,17.9,29.56,ESE,112,0.0,0.0,31,0.00,,OVC200,0.00,VWS V13.01,2013-01-08 02:43:00,
2013-01-07 20:48:00,46.6,17.6,29.56,ESE,113,0.0,0.0,31,0.00,,OVC200,0.00,VWS V13.01,2013-01-08 02:48:00,
2013-01-07 20:53:00,46.4,17.4,29.53,ESE,113,0.0,0.0,31,0.00,,OVC200,0.00,VWS V13.01,2013-01-08 02:53:00,
2013-01-07 20:58:00,46.4,17.4,29.53,ESE,112,0.0,0.0,31,0.00,,OVC200,0.00,VWS V13.01,2013-01-08 02:58:00,
2013-01-07 21:03:00,46.0,17.9,29.53,ESE,113,0.0,0.0,32,0.00,,OVC200,0.00,VWS V13.01,2013-01-08 03:03:00,
2013-01-07 21:08:00,45.9,17.7,29.53,ESE,113,0.0,0.0,32,0.00,,OVC200,0.00,VWS V13.01,2013-01-08 03:08:00,
2013-01-07 21:13:00,45.7,18.2,29.53,ESE,112,0.0,0.0,33,0.00,,OVC200,0.00,VWS V13.01,2013-01-08 03:13:00,
2013-01-07 21:18:00,45.5,18.1,29.53,ESE,113,0.0,0.0,33,0.00,,OVC200,0.00,VWS V13.01,2013-01-08 03:18:00,
2013-01-07 21:23:00,45.3,17.9,29.53,ESE,112,0.0,0.0,33,0.00,,OVC200,0.00,VWS V13.01,2013-01-08 03:23:00,
2013-01-07 21:28:00,45.3,17.9,29.53,ESE,114,0.0,0.0,33,0.00,,OVC200,0.00,VWS V13.01,2013-01-08 03:28:00,
2013-01-07 21:33:00,45.1,18.5,29.53,ESE,114,0.0,0.0,34,0.00,,OVC200,0.00,VWS V13.01,2013-01-08 03:33:00,
2013-01-07 21:38:00,45.1,19.1,29.56,ESE,113,0.0,0.0,35,0.00,,OVC200,0.00,VWS V13.01,2013-01-08 03:38:00,
2013-01-07 21:43:00,45.0,19.0,29.56,ESE,114,0.0,0.0,35,0.00,,OVC210,0.00,VWS V13.01,2013-01-08 03:43:00,
2013-01-07 21:48:00,45.0,19.0,29.56,ESE,113,0.0,0.0,35,0.00,,OVC210,0.00,VWS V13.01,2013-01-08 03:48:00,
2013-01-07 21:53:00,45.0,19.6,29.56,ESE,114,0.0,0.0,36,0.00,,OVC210,0.00,VWS V13.01,2013-01-08 03:53:00,
2013-01-07 21:58:00,45.0,19.6,29.56,ESE,113,0.0,0.0,36,0.00,,OVC210,0.00,VWS V13.01,2013-01-08 03:58:00,
2013-01-07 22:03:00,45.1,20.4,29.56,ESE,113,0.0,0.0,37,0.00,,OVC210,0.00,VWS V13.01,2013-01-08 04:03:00,
2013-01-07 22:08:00,45.1,19.8,29.53,ESE,113,0.0,0.0,36,0.00,,OVC210,0.00,VWS V13.01,2013-01-08 04:08:00,
2013-01-07 22:13:00,45.3,20.0,29.53,ESE,112,0.0,0.0,36,0.00,,OVC210,0.00,VWS V13.01,2013-01-08 04:13:00,
2013-01-07 22:18:00,45.5,20.1,29.53,ESE,114,0.0,0.0,36,0.00,,OVC210,0.00,VWS V13.01,2013-01-08 04:18:00,
2013-01-07 22:23:00,45.5,19.5,29.53,ESE,113,0.0,0.0,35,0.00,,OVC210,0.00,VWS V13.01,2013-01-08 04:23:00,
2013-01-07 22:28:00,45.7,19.6,29.53,ESE,112,0.0,0.0,35,0.00,,OVC210,0.00,VWS V13.01,2013-01-08 04:28:00,
2013-01-07 22:33:00,45.7,19.6,29.53,ESE,113,0.0,0.0,35,0.00,,OVC210,0.00,VWS V13.01,2013-01-08 04:33:00,
2013-01-07 22:38:00,45.9,19.8,29.53,ESE,113,0.0,0.0,35,0.00,,OVC210,0.00,VWS V13.01,2013-01-08 04:38:00,
2013-01-07 22:43:00,46.0,19.3,29.53,ESE,114,0.0,0.0,34,0.00,,BKN210,0.00,VWS V13.01,2013-01-08 04:43:00,
2013-01-07 22:48:00,46.0,19.3,29.53,ESE,122,0.0,0.0,34,0.00,,BKN210,0.00,VWS V13.01,2013-01-08 04:48:00,
2013-01-07 22:53:00,46.2,19.4,29.53,East,90,0.0,0.0,34,0.00,,BKN210,0.00,VWS V13.01,2013-01-08 04:53:00,
2013-01-07 22:58:00,46.4,18.9,29.53,East,100,4.0,4.0,33,0.00,,BKN210,0.00,VWS V13.01,2013-01-08 04:58:00,
2013-01-07 23:00:00,46.6,18.3,29.53,East,90,0.0,4.0,32,0.00,,BKN210,0.00,VWS V13.01,2013-01-08 05:00:00,
2013-01-07 23:01:00,46.6,18.3,29.53,East,89,0.0,0.0,32,0.00,,BKN210,0.00,VWS V13.01,2013-01-08 05:01:00,
2013-01-07 23:03:00,46.8,18.5,29.53,East,90,2.7,2.7,32,0.00,,BKN210,0.00,VWS V13.01,2013-01-08 05:03:00,
2013-01-07 23:08:00,46.8,17.7,29.53,SE,127,0.0,0.0,31,0.00,,BKN210,0.00,VWS V13.01,2013-01-08 05:08:00,
2013-01-07 23:13:00,46.9,17.9,29.53,East,91,0.0,0.0,31,0.00,,BKN210,0.00,VWS V13.01,2013-01-08 05:13:00,
2013-01-07 23:18:00,46.9,17.9,29.53,ESE,108,2.7,2.7,31,0.00,,BKN210,0.00,VWS V13.01,2013-01-08 05:18:00,
2013-01-07 23:23:00,46.9,17.9,29.53,ESE,105,0.0,0.0,31,0.00,,BKN210,0.00,VWS V13.01,2013-01-08 05:23:00,
2013-01-07 23:28:00,46.8,17.0,29.53,East,92,0.0,0.0,30,0.00,,BKN210,0.00,VWS V13.01,2013-01-08 05:28:00,
2013-01-07 23:33:00,46.8,17.0,29.53,ESE,103,0.0,0.0,30,0.00,,BKN210,0.00,VWS V13.01,2013-01-08 05:33:00,
2013-01-07 23:38:00,46.6,16.8,29.53,ESE,111,0.0,0.0,30,0.00,,BKN210,0.00,VWS V13.01,2013-01-08 05:38:00,
2013-01-07 23:43:00,46.6,16.8,29.53,SE,126,0.0,0.0,30,0.00,,OVC250,0.00,VWS V13.01,2013-01-08 05:43:00,
2013-01-07 23:48:00,46.6,17.6,29.53,East,101,0.0,0.0,31,0.00,,OVC250,0.00,VWS V13.01,2013-01-08 05:48:00,
2013-01-07 23:53:00,46.8,17.0,29.53,ESE,108,0.0,0.0,30,0.00,,OVC250,0.00,VWS V13.01,2013-01-08 05:53:00,
2013-01-07 23:58:00,46.8,17.7,29.53,East,97,3.6,3.6,31,0.00,,OVC250,0.00,VWS V13.01,2013-01-08 05:58:00,